Location: STAR School
(35.3054°N, 111.2976°W)
Time: 06:57:26
(UTC-07:00)

SR - Pass Details

Date: 24 May 2019
Orbit: 582 x 874 km, 66.7° (Epoch: 23 June)

Event Time Altitude Azimuth Distance (km) Brightness Sun altitude
Rises 20:04:44 0° 334° (NNW) 2,950 ? -7.1°
Reaches altitude 10° 20:06:57 10° 336° (NNW) 2,076 ? -7.5°
Maximum altitude 20:11:40 78° 63° (ENE) 718 ? -8.3°
Drops below altitude 10° 20:16:48 10° 150° (SSE) 2,254 ? -9.2°
Enters shadow 20:17:09 - 150° (SSE) 2,393 ? -9.3°
